Location: Caltech
(34.1382°N, 118.1253°W)
Time: 05:32:09
(UTC-08:00)

RS-15 - Visible Passes

Search period start: 19 December 2014 00:00
Search period end: 29 December 2014 00:00
Orbit: 1898 x 2147 km, 64.8° (Epoch: 17 December)

Date Brightness Start Highest point End Pass type
(mag) Time Alt. Az. Time Alt. Az. Time Alt. Az.
19 Dec 9.4 17:14:50 10° N 17:17:42 11° N 17:20:35 10° NNE visible
19 Dec 8.8 19:25:44 10° NNW 19:32:30 29° NNE 19:32:30 29° NNE visible
19 Dec 9.5 21:37:29 10° NNW 21:40:17 21° NW 21:40:17 21° NW visible
20 Dec 8.9 18:49:58 10° NNW 18:58:05 25° NE 18:58:05 25° NE visible
20 Dec 9.1 21:01:24 10° NNW 21:05:51 29° NNW 21:05:51 29° NNW visible
21 Dec 9.0 18:14:13 10° N 18:21:52 20° NNE 18:23:42 19° NE visible
21 Dec 8.7 20:25:26 10° NNW 20:31:30 38° NNW 20:31:30 38° NNW visible
21 Dec 10.0 22:39:04 10° NW 22:39:17 11° NW 22:39:17 11° NW visible
22 Dec 9.2 17:38:29 10° N 17:44:47 16° NNE 17:49:25 13° NE visible
22 Dec 8.4 19:49:31 10° NNW 19:57:13 44° N 19:57:13 44° N visible
22 Dec 9.6 22:02:20 10° NW 22:05:01 19° NW 22:05:01 19° NW visible
23 Dec 8.3 19:13:40 10° NNW 19:23:02 41° NE 19:23:02 41° NE visible
23 Dec 9.2 21:25:54 10° NW 21:30:50 30° NW 21:30:50 30° NW visible
24 Dec 8.5 18:37:52 10° NNW 18:47:43 33° NE 18:48:58 32° ENE visible
24 Dec 8.6 20:49:40 10° NNW 20:56:48 46° NW 20:56:48 46° NW visible
25 Dec 8.8 18:02:05 10° NNW 18:11:03 26° NE 18:15:04 22° ENE visible
25 Dec 8.0 20:13:34 10° NNW 20:22:55 67° NNW 20:22:55 67° NNW visible
25 Dec 9.9 22:28:44 10° WNW 22:30:45 14° WNW 22:30:45 14° WNW visible
26 Dec 9.0 17:26:20 10° NNW 17:34:11 21° NE 17:41:23 12° ENE visible
26 Dec 7.8 19:37:34 10° NNW 19:48:56 72° ENE 19:49:15 71° ENE visible
26 Dec 9.4 21:51:22 10° NW 21:57:07 25° W 21:57:07 25° W visible
27 Dec 8.0 19:01:39 10° NNW 19:12:45 56° NE 19:15:56 46° E visible
27 Dec 8.9 21:14:34 10° NW 21:23:50 38° W 21:23:50 38° W visible
28 Dec 8.2 18:25:48 10° NNW 18:36:26 44° NE 18:43:12 24° ESE visible
28 Dec 8.5 20:38:06 10° NW 20:48:57 52° WSW 20:51:11 47° SW visible
